TimeMDT,TemperatureF,Dew PointF,Humidity,Sea Level PressureIn,VisibilityMPH,Wind Direction,Wind SpeedMPH,Gust SpeedMPH,PrecipitationIn,Events,Conditions,WindDirDegrees,DateUTC
12:56 AM,50.9,21.0,31,29.81,10.0,SSE,5.8,-,N/A,,Overcast,150,2012-10-11 06:56:00
1:56 AM,50.9,22.1,32,29.81,10.0,SSE,5.8,-,N/A,,Overcast,150,2012-10-11 07:56:00
2:56 AM,52.0,23.0,32,29.81,10.0,ESE,5.8,-,N/A,,Overcast,120,2012-10-11 08:56:00
3:56 AM,52.0,24.1,34,29.83,10.0,SSE,6.9,-,N/A,,Overcast,150,2012-10-11 09:56:00
4:56 AM,52.0,24.1,34,29.82,10.0,SSE,6.9,-,N/A,,Overcast,160,2012-10-11 10:56:00
5:56 AM,50.0,25.2,38,29.85,10.0,Calm,Calm,-,0.00,,Overcast,0,2012-10-11 11:56:00
6:56 AM,48.9,25.2,40,29.88,10.0,ESE,6.9,-,N/A,,Overcast,120,2012-10-11 12:56:00
7:56 AM,46.9,26.1,44,29.93,10.0,ESE,4.6,-,N/A,,Overcast,110,2012-10-11 13:56:00
8:56 AM,54.0,28.0,37,29.92,10.0,ESE,3.5,-,N/A,,Overcast,120,2012-10-11 14:56:00
9:56 AM,52.9,30.0,42,29.94,10.0,Calm,Calm,-,N/A,,Partly Cloudy,0,2012-10-11 15:56:00
10:56 AM,61.9,28.0,28,29.91,10.0,SSW,9.2,-,N/A,,Partly Cloudy,210,2012-10-11 16:56:00
11:56 AM,63.9,29.1,27,29.90,10.0,SW,5.8,-,0.00,,Partly Cloudy,230,2012-10-11 17:56:00
12:56 PM,64.9,26.1,23,29.88,10.0,Variable,4.6,-,N/A,,Clear,0,2012-10-11 18:56:00
1:56 PM,68.0,25.2,20,29.84,10.0,Variable,6.9,-,N/A,,Clear,0,2012-10-11 19:56:00
2:56 PM,68.9,26.1,20,29.83,10.0,NW,11.5,-,N/A,,Clear,310,2012-10-11 20:56:00
4:56 PM,70.0,24.1,18,29.81,10.0,North,10.4,-,N/A,,Clear,10,2012-10-11 22:56:00
5:56 PM,66.9,24.1,20,29.82,10.0,NNW,10.4,-,N/A,,Clear,340,2012-10-11 23:56:00
7:56 PM,48.9,23.0,36,29.91,10.0,East,10.4,-,N/A,,Clear,80,2012-10-12 01:56:00
8:56 PM,46.9,23.0,39,29.90,10.0,SSE,5.8,-,N/A,,Clear,160,2012-10-12 02:56:00
9:56 PM,43.0,21.0,42,29.92,10.0,ESE,3.5,-,N/A,,Clear,110,2012-10-12 03:56:00
10:56 PM,39.9,23.0,51,29.89,10.0,East,6.9,-,0.00,,Clear,80,2012-10-12 04:56:00
11:56 PM,39.9,23.0,51,29.88,10.0,SSE,4.6,-,N/A,,Clear,150,2012-10-12 05:56:00